TimePDT,TemperatureF,Dew PointF,Humidity,Sea Level PressureIn,VisibilityMPH,Wind Direction,Wind SpeedMPH,Gust SpeedMPH,PrecipitationIn,Events,Conditions,WindDirDegrees,DateUTC
12:53 AM,66.0,51.1,59,29.95,-9999.0,NW,3.5,-,N/A,,Unknown,320,2013-07-24 07:53:00
1:53 AM,64.0,54.0,70,29.96,-9999.0,North,3.5,-,N/A,,Unknown,10,2013-07-24 08:53:00
2:53 AM,64.9,53.1,65,29.97,-9999.0,South,10.4,-,N/A,,Unknown,190,2013-07-24 09:53:00
3:53 AM,64.9,53.1,65,29.93,-9999.0,SSE,9.2,-,N/A,,Unknown,160,2013-07-24 10:53:00
4:53 AM,64.0,54.0,70,29.95,-9999.0,ESE,3.5,-,N/A,,Unknown,120,2013-07-24 11:53:00
5:53 AM,61.0,55.9,83,29.99,-9999.0,SSW,3.5,-,0.01,,Unknown,210,2013-07-24 12:53:00
6:53 AM,64.0,55.0,73,30.00,-9999.0,SSW,4.6,-,N/A,,Unknown,200,2013-07-24 13:53:00
7:53 AM,64.9,55.9,73,30.00,-9999.0,Calm,Calm,-,N/A,,Unknown,0,2013-07-24 14:53:00
8:53 AM,70.0,53.1,55,29.98,-9999.0,West,3.5,-,N/A,,Unknown,260,2013-07-24 15:53:00
9:53 AM,75.0,51.1,43,29.96,-9999.0,Variable,3.5,-,N/A,,Unknown,0,2013-07-24 16:53:00
10:53 AM,80.1,50.0,35,29.94,-9999.0,Variable,3.5,-,N/A,,Unknown,0,2013-07-24 17:53:00
11:53 AM,84.0,46.0,26,29.91,-9999.0,North,-9999.0,-,N/A,,Unknown,0,2013-07-24 18:53:00
12:53 PM,82.0,46.0,28,29.92,-9999.0,Variable,5.8,-,N/A,,Unknown,0,2013-07-24 19:53:00
1:53 PM,70.0,57.0,63,29.97,-9999.0,SSE,13.8,-,0.15,,Unknown,150,2013-07-24 20:53:00
2:53 PM,75.9,60.1,58,29.91,-9999.0,SE,9.2,-,N/A,,Unknown,130,2013-07-24 21:53:00
3:53 PM,80.1,55.9,43,29.88,-9999.0,SSE,3.5,-,N/A,,Unknown,150,2013-07-24 22:53:00
4:53 PM,82.9,52.0,34,29.87,-9999.0,North,6.9,-,N/A,,Unknown,360,2013-07-24 23:53:00
5:53 PM,79.0,53.1,40,29.90,-9999.0,North,10.4,-,N/A,,Unknown,10,2013-07-25 00:53:00
6:53 PM,75.0,57.0,53,29.91,-9999.0,SSE,5.8,-,N/A,,Unknown,150,2013-07-25 01:53:00
7:53 PM,69.1,59.0,70,29.95,-9999.0,SE,4.6,-,0.04,,Unknown,140,2013-07-25 02:53:00
8:53 PM,66.0,57.9,75,29.95,-9999.0,South,8.1,-,N/A,,Unknown,170,2013-07-25 03:53:00
9:53 PM,63.0,57.0,81,29.96,-9999.0,East,4.6,-,N/A,,Unknown,90,2013-07-25 04:53:00
10:53 PM,62.1,57.0,84,29.95,-9999.0,South,5.8,-,N/A,,Unknown,190,2013-07-25 05:53:00
11:53 PM,59.0,55.9,90,29.95,-9999.0,SSE,8.1,-,N/A,,Unknown,160,2013-07-25 06:53:00